Time,TemperatureF,DewpointF,PressureIn,WindDirection,WindDirectionDegrees,WindSpeedMPH,WindSpeedGustMPH,Humidity,HourlyPrecipIn,Conditions,Clouds,dailyrainin,SoftwareType,DateUTC
2013-05-05 00:02:00,43.0,43.0,29.98,ENE,67,3.0,16.0,100,0.20,,,0.59,,2013-05-05 04:02:00,
2013-05-05 00:12:00,43.0,43.0,29.98,ENE,67,3.0,16.0,100,0.20,,,0.59,,2013-05-05 04:12:00,
2013-05-05 00:23:00,42.0,42.0,29.97,NNW,343,2.0,9.0,100,0.20,,,0.65,,2013-05-05 04:23:00,
2013-05-05 00:32:00,42.0,42.0,29.94,NW,307,2.0,10.0,100,0.24,,,0.72,,2013-05-05 04:32:00,
2013-05-05 00:43:00,42.0,42.0,29.94,NW,307,2.0,10.0,100,0.24,,,0.72,,2013-05-05 04:43:00,
2013-05-05 00:53:00,42.0,42.0,29.94,SSW,202,5.0,17.0,100,0.21,,,0.74,,2013-05-05 04:53:00,
2013-05-05 01:02:00,42.0,42.0,29.93,North,349,4.0,11.0,100,0.15,,,0.75,,2013-05-05 05:02:00,
2013-05-05 01:12:00,42.0,42.0,29.93,North,349,4.0,11.0,100,0.15,,,0.75,,2013-05-05 05:12:00,
2013-05-05 01:22:00,43.0,43.0,29.95,NNE,33,5.0,16.0,100,0.10,,,0.76,,2013-05-05 05:22:00,
2013-05-05 01:32:00,43.0,43.0,29.95,NNW,344,3.0,14.0,100,0.07,,,0.79,,2013-05-05 05:32:00,
2013-05-05 01:42:00,43.0,43.0,29.95,NNW,344,3.0,14.0,100,0.07,,,0.79,,2013-05-05 05:42:00,
2013-05-05 01:52:00,43.0,43.0,29.94,North,360,2.0,10.0,100,0.07,,,0.81,,2013-05-05 05:52:00,
2013-05-05 02:01:00,43.0,43.0,29.93,WSW,257,3.0,12.0,100,0.10,,,0.85,,2013-05-05 06:01:00,
2013-05-05 02:12:00,43.0,43.0,29.93,WSW,257,3.0,12.0,100,0.10,,,0.85,,2013-05-05 06:12:00,
2013-05-05 02:21:00,43.0,43.0,29.90,NNW,333,2.0,9.0,100,0.12,,,0.89,,2013-05-05 06:21:00,
2013-05-05 02:32:00,43.0,43.0,29.89,WNW,296,3.0,10.0,100,0.12,,,0.91,,2013-05-05 06:32:00,
2013-05-05 02:42:00,43.0,43.0,29.89,WNW,296,3.0,10.0,100,0.12,,,0.91,,2013-05-05 06:42:00,
2013-05-05 02:52:00,43.0,43.0,29.89,West,271,2.0,15.0,100,0.10,,,0.92,,2013-05-05 06:52:00,
2013-05-05 03:01:00,43.0,43.0,29.88,NNE,26,5.0,23.0,100,0.12,,,0.97,,2013-05-05 07:01:00,
2013-05-05 03:11:00,43.0,43.0,29.88,NNE,26,5.0,23.0,100,0.12,,,0.97,,2013-05-05 07:11:00,
2013-05-05 03:22:00,43.0,43.0,29.87,West,281,7.0,23.0,100,0.12,,,1.01,,2013-05-05 07:22:00,
2013-05-05 03:32:00,43.0,43.0,29.86,ENE,61,5.0,24.0,100,0.14,,,1.05,,2013-05-05 07:32:00,
2013-05-05 03:42:00,43.0,43.0,29.86,ENE,61,5.0,24.0,100,0.14,,,1.05,,2013-05-05 07:42:00,
2013-05-05 03:52:00,43.0,43.0,29.86,ENE,73,5.0,21.0,100,0.15,,,1.08,,2013-05-05 07:52:00,
2013-05-05 04:02:00,43.0,43.0,29.86,ENE,57,6.0,24.0,100,0.21,,,1.18,,2013-05-05 08:02:00,
2013-05-05 04:11:00,43.0,43.0,29.86,ENE,57,6.0,24.0,100,0.21,,,1.18,,2013-05-05 08:11:00,
2013-05-05 04:21:00,43.0,43.0,29.86,WSW,257,3.0,19.0,100,0.24,,,1.26,,2013-05-05 08:21:00,
2013-05-05 04:32:00,42.0,42.0,29.87,NE,51,5.0,17.0,100,0.32,,,1.37,,2013-05-05 08:32:00,
2013-05-05 04:42:00,42.0,42.0,29.87,NE,51,5.0,17.0,100,0.32,,,1.37,,2013-05-05 08:42:00,
2013-05-05 04:53:00,42.0,42.0,29.86,NNE,27,2.0,16.0,100,0.38,,,1.46,,2013-05-05 08:53:00,
2013-05-05 05:01:00,42.0,42.0,29.87,NNW,344,6.0,25.0,100,0.36,,,1.54,,2013-05-05 09:01:00,
2013-05-05 05:11:00,42.0,42.0,29.87,NNW,344,6.0,25.0,100,0.36,,,1.54,,2013-05-05 09:11:00,
2013-05-05 05:21:00,42.0,42.0,29.88,ESE,109,3.0,18.0,100,0.33,,,1.60,,2013-05-05 09:21:00,
2013-05-05 05:33:00,42.0,42.0,29.86,South,170,6.0,17.0,100,0.33,,,1.70,,2013-05-05 09:33:00,
2013-05-05 05:42:00,42.0,42.0,29.86,South,170,6.0,17.0,100,0.33,,,1.70,,2013-05-05 09:42:00,
2013-05-05 05:52:00,41.0,41.0,29.84,SSE,153,7.0,22.0,100,0.31,,,1.77,,2013-05-05 09:52:00,
2013-05-05 06:03:00,41.0,41.0,29.83,NW,321,4.0,18.0,100,0.24,,,1.78,,2013-05-05 10:03:00,
2013-05-05 06:12:00,41.0,41.0,29.83,NW,321,4.0,18.0,100,0.24,,,1.78,,2013-05-05 10:12:00,
2013-05-05 06:22:00,40.0,40.0,29.84,NW,308,2.0,23.0,100,0.18,,,1.79,,2013-05-05 10:22:00,
2013-05-05 06:32:00,40.0,40.0,29.84,ENE,71,5.0,16.0,100,0.13,,,1.83,,2013-05-05 10:32:00,
2013-05-05 06:42:00,40.0,40.0,29.84,ENE,71,5.0,16.0,100,0.13,,,1.83,,2013-05-05 10:42:00,
2013-05-05 06:53:00,40.0,40.0,29.84,NW,317,1.0,15.0,100,0.11,,,1.88,,2013-05-05 10:53:00,
2013-05-05 07:01:00,39.0,39.0,29.83,ENE,65,5.0,16.0,100,0.14,,,1.92,,2013-05-05 11:01:00,
2013-05-05 07:12:00,39.0,39.0,29.83,ENE,65,5.0,16.0,100,0.14,,,1.92,,2013-05-05 11:12:00,
2013-05-05 07:22:00,39.0,39.0,29.83,WSW,240,3.0,15.0,100,0.15,,,1.94,,2013-05-05 11:22:00,
2013-05-05 07:32:00,39.0,39.0,29.85,NNE,24,4.0,21.0,100,0.16,,,2.00,,2013-05-05 11:32:00,
2013-05-05 07:42:00,39.0,39.0,29.85,NNE,24,4.0,21.0,100,0.16,,,2.00,,2013-05-05 11:42:00,
2013-05-05 07:52:00,39.0,39.0,29.85,South,178,3.0,16.0,100,0.18,,,2.07,,2013-05-05 11:52:00,
2013-05-05 08:02:00,39.0,39.0,29.86,NW,307,3.0,9.0,100,0.22,,,2.14,,2013-05-05 12:02:00,
2013-05-05 08:11:00,39.0,39.0,29.86,NW,307,3.0,9.0,100,0.22,,,2.14,,2013-05-05 12:11:00,
2013-05-05 08:22:00,38.0,38.0,29.86,ENE,65,1.0,11.0,100,0.25,,,2.20,,2013-05-05 12:22:00,
2013-05-05 08:32:00,38.0,38.0,29.88,North,355,3.0,13.0,100,0.28,,,2.28,,2013-05-05 12:32:00,
2013-05-05 08:42:00,38.0,38.0,29.88,North,355,3.0,13.0,100,0.28,,,2.28,,2013-05-05 12:42:00,
2013-05-05 08:52:00,38.0,38.0,29.86,East,97,3.0,15.0,100,0.28,,,2.36,,2013-05-05 12:52:00,
2013-05-05 09:01:00,38.0,38.0,29.86,West,275,2.0,13.0,100,0.29,,,2.43,,2013-05-05 13:01:00,
2013-05-05 09:11:00,38.0,38.0,29.86,West,275,2.0,13.0,100,0.29,,,2.43,,2013-05-05 13:11:00,
2013-05-05 09:21:00,38.0,38.0,29.85,West,263,4.0,16.0,100,0.29,,,2.49,,2013-05-05 13:21:00,
2013-05-05 09:32:00,38.0,38.0,29.86,WSW,241,3.0,13.0,100,0.25,,,2.54,,2013-05-05 13:32:00,
2013-05-05 09:42:00,38.0,38.0,29.86,WSW,241,3.0,13.0,100,0.25,,,2.54,,2013-05-05 13:42:00,
2013-05-05 09:52:00,38.0,38.0,29.85,ENE,57,2.0,12.0,100,0.24,,,2.60,,2013-05-05 13:52:00,
2013-05-05 10:02:00,38.0,38.0,29.86,ESE,111,3.0,13.0,100,0.24,,,2.68,,2013-05-05 14:02:00,
2013-05-05 10:11:00,38.0,38.0,29.86,ESE,111,3.0,13.0,100,0.24,,,2.68,,2013-05-05 14:11:00,
2013-05-05 10:21:00,38.0,38.0,29.85,North,350,1.0,13.0,100,0.27,,,2.76,,2013-05-05 14:21:00,
2013-05-05 10:32:00,38.0,38.0,29.85,NW,326,3.0,12.0,100,0.28,,,2.82,,2013-05-05 14:32:00,
2013-05-05 10:42:00,38.0,38.0,29.85,NW,326,3.0,12.0,100,0.28,,,2.82,,2013-05-05 14:42:00,
2013-05-05 10:52:00,38.0,38.0,29.85,West,260,1.0,16.0,100,0.29,,,2.90,,2013-05-05 14:52:00,
2013-05-05 11:02:00,38.0,38.0,29.86,NE,38,3.0,12.0,100,0.32,,,3.00,,2013-05-05 15:02:00,
2013-05-05 11:11:00,38.0,38.0,29.86,NE,38,3.0,12.0,100,0.32,,,3.00,,2013-05-05 15:11:00,
2013-05-05 11:21:00,39.0,39.0,29.86,NNE,24,2.0,8.0,100,0.31,,,3.08,,2013-05-05 15:21:00,
2013-05-05 11:33:00,39.0,39.0,29.87,NNW,339,3.0,14.0,100,0.32,,,3.15,,2013-05-05 15:33:00,
2013-05-05 11:43:00,39.0,39.0,29.87,NNW,339,3.0,14.0,100,0.32,,,3.15,,2013-05-05 15:43:00,
2013-05-05 11:53:00,39.0,39.0,29.88,NE,42,2.0,13.0,100,0.32,,,3.22,,2013-05-05 15:53:00,
2013-05-05 12:03:00,39.0,39.0,29.87,NNE,32,327.0,327.0,100,0.00,,,3.08,,2013-05-05 16:03:00,
2013-05-05 12:12:00,39.0,39.0,29.87,NNE,32,327.0,327.0,100,0.00,,,3.08,,2013-05-05 16:12:00,
2013-05-05 12:23:00,39.0,39.0,29.88,NE,34,2.0,8.0,100,0.07,,,3.15,,2013-05-05 16:23:00,
2013-05-05 12:32:00,38.0,38.0,29.86,NNW,343,3.0,11.0,100,0.15,,,3.23,,2013-05-05 16:32:00,
2013-05-05 12:42:00,38.0,38.0,29.86,NNW,343,3.0,11.0,100,0.15,,,3.23,,2013-05-05 16:42:00,
2013-05-05 12:53:00,38.0,38.0,29.85,ENE,59,5.0,16.0,100,0.22,,,3.30,,2013-05-05 16:53:00,
2013-05-05 13:02:00,39.0,39.0,29.85,ESE,117,2.0,15.0,100,0.26,,,3.35,,2013-05-05 17:02:00,
2013-05-05 13:12:00,39.0,39.0,29.85,ESE,117,2.0,15.0,100,0.26,,,3.35,,2013-05-05 17:12:00,
2013-05-05 13:23:00,39.0,39.0,29.83,North,350,2.0,15.0,100,0.25,,,3.40,,2013-05-05 17:23:00,
2013-05-05 13:32:00,39.0,39.0,29.85,NW,324,3.0,21.0,100,0.20,,,3.43,,2013-05-05 17:32:00,
2013-05-05 13:42:00,39.0,39.0,29.85,NW,324,3.0,21.0,100,0.20,,,3.43,,2013-05-05 17:42:00,
2013-05-05 13:52:00,39.0,39.0,29.84,North,9,6.0,27.0,100,0.19,,,3.49,,2013-05-05 17:52:00,
2013-05-05 14:01:00,39.0,39.0,29.82,NNW,336,3.0,17.0,100,0.17,,,3.51,,2013-05-05 18:01:00,
2013-05-05 14:12:00,39.0,39.0,29.82,NNW,336,3.0,17.0,100,0.17,,,3.51,,2013-05-05 18:12:00,
2013-05-05 14:21:00,39.0,39.0,29.83,NE,47,3.0,11.0,100,0.13,,,3.52,,2013-05-05 18:21:00,
2013-05-05 14:32:00,39.0,39.0,29.82,NNW,340,2.0,14.0,100,0.12,,,3.54,,2013-05-05 18:32:00,
2013-05-05 14:42:00,39.0,39.0,29.82,NNW,340,2.0,14.0,100,0.12,,,3.54,,2013-05-05 18:42:00,
2013-05-05 14:52:00,39.0,39.0,29.82,NNE,15,4.0,13.0,100,0.09,,,3.57,,2013-05-05 18:52:00,
2013-05-05 15:01:00,40.0,40.0,29.82,NNE,17,8.0,23.0,100,0.14,,,3.64,,2013-05-05 19:01:00,
2013-05-05 15:11:00,40.0,40.0,29.82,NNE,17,8.0,23.0,100,0.14,,,3.64,,2013-05-05 19:11:00,
2013-05-05 15:21:00,40.0,40.0,29.83,NNE,28,5.0,14.0,100,0.18,,,3.69,,2013-05-05 19:21:00,
2013-05-05 15:32:00,40.0,40.0,29.82,ESE,119,3.0,10.0,100,0.24,,,3.77,,2013-05-05 19:32:00,
2013-05-05 15:42:00,40.0,40.0,29.82,ESE,119,3.0,10.0,100,0.24,,,3.77,,2013-05-05 19:42:00,
2013-05-05 15:52:00,40.0,40.0,29.83,West,281,2.0,12.0,100,0.26,,,3.83,,2013-05-05 19:52:00,
2013-05-05 16:01:00,40.0,40.0,29.83,East,87,1.0,15.0,100,0.25,,,3.90,,2013-05-05 20:01:00,
2013-05-05 16:11:00,40.0,40.0,29.83,East,87,1.0,15.0,100,0.25,,,3.90,,2013-05-05 20:11:00,
2013-05-05 16:21:00,40.0,40.0,29.83,ENE,75,2.0,11.0,100,0.25,,,3.94,,2013-05-05 20:21:00,
2013-05-05 16:32:00,40.0,40.0,29.83,NNE,29,3.0,14.0,100,0.18,,,3.95,,2013-05-05 20:32:00,
2013-05-05 16:42:00,40.0,40.0,29.83,NNE,29,3.0,14.0,100,0.18,,,3.95,,2013-05-05 20:42:00,
2013-05-05 16:52:00,40.0,40.0,29.82,WSW,258,2.0,21.0,100,0.11,,,3.95,,2013-05-05 20:52:00,
2013-05-05 17:02:00,41.0,41.0,29.82,NE,51,2.0,10.0,100,0.09,,,3.96,,2013-05-05 21:02:00,
2013-05-05 17:11:00,41.0,41.0,29.82,NE,51,2.0,10.0,100,0.09,,,3.96,,2013-05-05 21:11:00,
2013-05-05 17:21:00,40.0,40.0,29.82,ESE,119,2.0,9.0,100,0.05,,,3.98,,2013-05-05 21:21:00,
2013-05-05 17:33:00,40.0,40.0,29.81,NNE,27,3.0,11.0,100,0.06,,,3.99,,2013-05-05 21:33:00,
2013-05-05 17:42:00,40.0,40.0,29.81,NNE,27,3.0,11.0,100,0.06,,,3.99,,2013-05-05 21:42:00,
2013-05-05 17:53:00,41.0,41.0,29.81,North,349,2.0,12.0,100,0.10,,,4.03,,2013-05-05 21:53:00,
2013-05-05 18:02:00,41.0,41.0,29.80,North,5,3.0,9.0,100,0.09,,,4.04,,2013-05-05 22:02:00,
2013-05-05 18:12:00,41.0,41.0,29.80,North,5,3.0,9.0,100,0.09,,,4.04,,2013-05-05 22:12:00,
2013-05-05 18:22:00,41.0,41.0,29.80,ENE,74,4.0,14.0,100,0.10,,,4.07,,2013-05-05 22:22:00,
2013-05-05 18:33:00,41.0,41.0,29.79,NNE,33,3.0,15.0,100,0.14,,,4.12,,2013-05-05 22:33:00,
2013-05-05 18:42:00,41.0,41.0,29.79,NNE,33,3.0,15.0,100,0.14,,,4.12,,2013-05-05 22:42:00,
2013-05-05 18:52:00,41.0,41.0,29.79,North,355,1.0,7.0,100,0.16,,,4.18,,2013-05-05 22:52:00,
2013-05-05 19:02:00,41.0,41.0,29.80,NNE,26,1.0,13.0,100,0.19,,,4.23,,2013-05-05 23:02:00,
2013-05-05 19:12:00,41.0,41.0,29.80,NNE,26,1.0,13.0,100,0.19,,,4.23,,2013-05-05 23:12:00,
2013-05-05 19:21:00,41.0,41.0,29.79,NNW,346,3.0,10.0,100,0.19,,,4.26,,2013-05-05 23:21:00,
2013-05-05 19:32:00,41.0,41.0,29.78,ESE,104,2.0,12.0,100,0.23,,,4.35,,2013-05-05 23:32:00,
2013-05-05 19:42:00,41.0,41.0,29.78,ESE,104,2.0,12.0,100,0.23,,,4.35,,2013-05-05 23:42:00,
2013-05-05 19:52:00,42.0,42.0,29.79,NNW,345,5.0,15.0,100,0.22,,,4.40,,2013-05-05 23:52:00,
2013-05-05 20:01:00,42.0,42.0,29.79,West,275,2.0,9.0,100,0.22,,,4.43,,2013-05-06 00:01:00,
2013-05-05 20:11:00,42.0,42.0,29.79,West,275,2.0,9.0,100,0.22,,,4.43,,2013-05-06 00:11:00,
2013-05-05 20:21:00,42.0,42.0,29.81,ESE,122,4.0,17.0,100,0.25,,,4.49,,2013-05-06 00:21:00,
2013-05-05 20:32:00,42.0,42.0,29.80,NW,321,2.0,12.0,100,0.21,,,4.54,,2013-05-06 00:32:00,
2013-05-05 20:41:00,42.0,42.0,29.80,NW,321,2.0,12.0,100,0.21,,,4.54,,2013-05-06 00:41:00,
2013-05-05 20:52:00,42.0,42.0,29.80,ENE,59,5.0,19.0,100,0.19,,,4.57,,2013-05-06 00:52:00,
2013-05-05 21:01:00,42.0,42.0,29.79,SE,132,6.0,12.0,100,0.17,,,4.58,,2013-05-06 01:01:00,
2013-05-05 21:11:00,42.0,42.0,29.79,SE,132,6.0,12.0,100,0.17,,,4.58,,2013-05-06 01:11:00,
2013-05-05 21:21:00,43.0,43.0,29.80,NNW,348,4.0,14.0,100,0.16,,,4.64,,2013-05-06 01:21:00,
2013-05-05 21:32:00,43.0,43.0,29.79,NNE,24,6.0,12.0,100,0.20,,,4.72,,2013-05-06 01:32:00,
2013-05-05 21:42:00,43.0,43.0,29.79,NNE,24,6.0,12.0,100,0.20,,,4.72,,2013-05-06 01:42:00,
2013-05-05 21:52:00,43.0,43.0,29.78,NNE,17,3.0,14.0,100,0.26,,,4.81,,2013-05-06 01:52:00,
2013-05-05 22:02:00,43.0,43.0,29.79,NNE,20,2.0,8.0,100,0.37,,,4.90,,2013-05-06 02:02:00,
2013-05-05 22:12:00,43.0,43.0,29.79,NNE,20,2.0,8.0,100,0.37,,,4.90,,2013-05-06 02:12:00,
2013-05-05 22:21:00,44.0,44.0,29.78,ESE,114,3.0,12.0,100,0.42,,,5.01,,2013-05-06 02:21:00,
2013-05-05 22:32:00,44.0,44.0,29.78,NNW,340,3.0,13.0,100,0.42,,,5.09,,2013-05-06 02:32:00,
2013-05-05 22:42:00,44.0,44.0,29.78,NNW,340,3.0,13.0,100,0.42,,,5.09,,2013-05-06 02:42:00,
2013-05-05 22:52:00,44.0,44.0,29.78,ESE,115,7.0,21.0,100,0.45,,,5.21,,2013-05-06 02:52:00,
2013-05-05 23:02:00,45.0,45.0,29.79,North,355,3.0,10.0,100,0.41,,,5.22,,2013-05-06 03:02:00,
2013-05-05 23:11:00,45.0,45.0,29.79,North,355,3.0,10.0,100,0.41,,,5.22,,2013-05-06 03:11:00,
2013-05-05 23:22:00,45.0,45.0,29.79,ENE,74,4.0,16.0,100,0.44,,,5.36,,2013-05-06 03:22:00,
2013-05-05 23:33:00,45.0,45.0,29.80,WNW,299,0.0,10.0,100,0.50,,,5.50,,2013-05-06 03:33:00,
2013-05-05 23:42:00,45.0,45.0,29.80,WNW,299,0.0,10.0,100,0.50,,,5.50,,2013-05-06 03:42:00,
2013-05-05 23:53:00,46.0,46.0,29.80,ESE,108,5.0,10.0,100,0.56,,,5.68,,2013-05-06 03:53:00,